Vorticity
3 3 3 3 3 4 4 4 4 4 5 5 4 4 4 4 3 3 3 2 2 1 1 2 1 1 2 3 6 8 10 12 12 9 6 4 3 5 6 6 7 7 9 9 8 8 7 8 5 6 5 5 5 1 6 5 1 5 6 -0 4 11 3 3 5 3 7 3 4 6 9 8 3 8 7 8 9 6 8 8 7 6 7 7 5 6 7 7
2 2 2 2 3 3 3 3 3 4 4 4 4 4 5 4 4 4 3 2 2 1 2 2 1 2 1 1 5 9 10 11 12 9 7 7 5 4 5 6 7 7 8 8 8 8 8 8 7 5 5 7 5 1 4 1 -6 -3 4 2 2 8 3 3 7 4 3 3 2 5 18 11 -3 7 10 7 8 7 8 9 7 6 7 8 6 6 6 5
2 3 3 3 3 3 3 3 3 3 4 4 4 4 5 4 4 4 3 3 2 2 2 1 2 1 1 2 7 11 12 13 13 8 6 7 7 5 4 4 6 7 6 7 8 7 8 8 7 6 4 7 6 2 3 6 5 4 7 3 -1 5 3 0 5 5 2 2 -0 1 13 13 0 -1 5 9 9 7 8 7 5 7 8 7 7 8 6 5
3 3 3 3 3 3 3 3 3 3 4 4 4 5 5 5 5 5 4 4 4 3 3 3 3 1 2 4 8 12 15 17 11 6 7 6 6 6 6 4 5 6 6 7 7 6 8 7 8 7 5 7 7 4 4 7 8 6 6 4 1 5 7 2 1 3 3 3 2 0 1 12 10 -8 -3 9 7 8 8 5 3 6 10 6 5 9 8 5
4 4 3 3 3 3 3 3 4 4 4 3 4 4 4 5 5 5 5 5 5 5 4 4 3 2 2 5 10 13 17 18 8 5 10 9 8 8 7 6 5 5 5 6 6 7 6 6 8 7 7 8 5 3 4 9 12 5 3 6 4 5 8 3 1 2 3 2 1 3 -1 4 7 -6 -0 9 11 13 6 7 7 3 9 8 4 8 10 5
3 4 3 3 2 2 2 3 3 3 4 3 4 4 4 5 5 6 6 6 6 5 5 5 4 3 3 8 13 15 20 19 10 8 13 11 10 9 8 8 7 6 5 6 6 7 6 6 6 6 8 7 6 2 1 11 10 -3 -4 7 7 3 6 4 6 7 4 7 2 2 1 1 3 -1 3 6 13 15 0 4 9 3 9 9 4 7 9 6
3 3 3 3 2 2 2 2 3 3 3 3 4 4 4 5 5 6 5 6 6 5 6 5 4 3 6 10 14 20 22 16 11 8 10 11 9 8 8 7 7 7 6 6 6 7 6 6 5 6 7 4 4 0 4 15 7 1 7 11 8 2 5 6 8 10 5 7 6 4 4 3 4 3 5 4 6 12 4 5 8 4 8 9 7 7 7 6
5 4 4 4 3 2 3 3 3 3 3 3 4 4 4 5 5 6 6 6 5 6 6 5 5 4 7 9 15 22 14 9 17 14 11 12 10 9 8 6 7 7 7 6 5 7 6 6 5 6 8 4 1 -3 3 11 -1 2 12 7 4 2 5 5 4 10 7 5 9 9 7 7 7 5 7 7 3 7 9 6 7 6 5 8 9 7 6 6
6 6 6 5 4 3 3 3 3 3 3 3 4 4 4 5 5 5 5 5 6 6 5 5 6 5 6 10 15 19 10 9 19 18 15 14 11 10 9 8 7 6 7 6 5 7 5 5 5 6 12 10 3 -2 -1 9 3 1 7 3 4 4 3 4 4 8 6 5 9 9 9 10 8 8 8 11 5 2 10 11 8 7 5 7 10 5 5 7
7 8 7 6 5 4 4 4 4 4 4 3 3 4 4 4 4 5 5 5 6 5 6 7 7 5 7 11 16 18 14 12 14 15 16 15 13 11 9 8 8 7 8 7 5 6 4 5 7 4 9 10 4 3 0 4 5 2 4 3 4 5 3 6 7 7 5 7 11 12 14 11 9 8 4 10 9 2 16 21 8 5 6 5 7 6 4 7
7 8 7 7 6 5 5 4 5 5 4 3 3 4 4 4 4 4 5 5 5 5 8 8 6 6 8 12 16 15 12 12 12 14 16 16 15 12 10 9 8 8 8 9 7 6 5 6 8 2 3 10 9 9 6 -0 2 4 3 2 3 5 6 8 7 7 9 9 11 16 13 8 13 10 0 8 7 6 25 22 5 4 6 3 4 6 4 5
8 7 7 7 6 6 5 5 5 4 3 3 3 3 3 4 4 4 4 4 6 7 8 8 7 7 9 13 16 13 10 11 11 11 12 14 15 15 13 10 8 9 8 11 10 7 7 6 7 3 1 8 9 9 13 9 7 6 3 3 5 4 4 7 8 9 9 4 6 20 18 6 11 9 6 10 3 11 28 15 3 6 5 5 4 4 4 6
7 6 6 6 6 6 5 5 5 4 4 3 2 3 3 4 4 3 3 5 7 7 7 8 8 7 9 13 15 11 9 11 11 11 11 11 12 13 14 12 10 8 7 9 12 10 9 8 6 6 5 5 4 5 11 13 11 8 6 4 2 5 6 6 7 5 4 3 4 18 22 8 5 8 12 8 2 22 27 7 5 8 4 6 6 5 4 7
7 7 6 5 6 5 5 6 5 4 4 2 3 4 3 4 3 2 5 7 6 6 9 9 8 8 11 13 13 10 10 11 12 12 12 12 12 12 12 13 11 10 9 7 11 11 11 10 6 6 8 4 2 1 1 6 9 7 5 3 2 4 5 6 6 3 5 6 5 12 20 16 7 11 19 9 12 34 23 4 6 5 4 7 8 7 4 7
7 6 6 6 6 5 7 7 5 4 3 3 4 3 4 5 2 4 7 5 4 8 10 8 8 9 10 12 12 11 11 11 12 13 13 12 12 13 12 12 12 11 9 7 8 11 12 12 9 9 8 4 4 3 -1 -0 3 7 8 4 2 0 2 8 5 4 9 6 6 11 18 24 14 14 22 11 22 40 16 1 7 3 5 8 7 8 5 6
8 7 7 7 7 8 8 6 5 3 2 4 4 3 5 4 2 7 7 3 8 11 8 8 10 9 11 14 13 11 11 12 12 12 14 14 13 14 13 12 13 11 11 10 7 8 11 12 12 10 9 8 7 4 2 3 1 4 9 2 -0 2 5 10 6 4 8 5 6 7 10 18 14 13 12 1 21 34 9 2 7 3 5 6 6 8 7 5
8 9 10 9 10 8 6 5 3 2 3 3 3 4 5 2 4 7 5 6 10 8 6 11 10 8 13 14 10 11 13 13 14 13 14 15 13 14 15 14 13 12 12 11 9 9 11 13 14 11 10 9 10 8 6 8 4 2 9 6 4 5 3 4 4 4 5 2 4 5 9 20 23 25 21 21 32 23 4 7 7 4 6 4 6 8 7 5
8 9 9 8 7 4 3 3 2 3 2 2 3 6 4 3 7 7 6 8 9 7 9 12 9 8 13 13 10 11 12 12 14 15 15 14 15 14 15 15 15 15 14 14 14 12 11 13 13 13 15 12 11 12 9 11 10 4 4 3 4 7 8 9 6 9 11 4 5 4 6 21 34 37 36 38 31 8 4 13 7 4 5 3 6 8 8 6
6 6 4 3 2 1 2 1 2 3 1 4 5 5 4 5 8 7 8 8 6 9 10 10 9 9 11 12 12 11 11 14 14 14 14 14 16 15 16 17 16 15 14 16 15 13 13 14 15 15 14 14 13 9 7 9 8 11 9 6 12 8 5 10 3 3 9 6 9 7 3 16 22 15 17 19 11 4 8 11 8 6 4 4 6 6 7 7
3 2 1 1 0 0 1 1 2 3 4 7 4 5 7 8 9 7 7 7 7 10 9 9 9 9 14 13 11 10 11 14 13 11 11 11 14 16 17 17 17 15 14 16 17 16 13 13 17 18 13 11 12 10 5 3 5 17 17 11 17 10 -1 7 6 1 6 8 8 8 8 13 9 4 9 10 10 13 9 7 9 7 4 4 4 5 6 7
1 2 1 0 1 1 2 2 4 4 6 6 5 7 8 8 9 6 6 7 9 9 8 9 8 10 14 9 7 9 12 16 13 11 11 10 11 12 13 15 17 17 15 15 17 18 20 24 21 19 25 16 6 14 11 2 5 8 1 -5 7 12 -0 -1 6 6 8 9 4 6 9 5 6 10 10 6 9 13 8 6 8 7 7 4 3 5 4 6
1 1 1 1 2 2 3 4 5 6 5 6 8 9 10 10 9 8 10 9 8 7 7 9 10 13 11 8 10 8 9 14 12 11 11 11 11 10 11 13 14 16 20 20 17 12 12 24 15 4 17 7 -8 9 8 -6 2 8 4 2 6 10 1 -9 2 12 9 8 9 10 11 5 5 8 5 4 2 5 7 6 6 7 8 4 3 6 3 4
1 1 2 3 3 3 4 5 6 6 6 8 10 11 11 9 7 10 10 7 7 7 8 9 10 13 9 8 11 7 9 13 12 13 12 12 11 9 10 10 10 14 19 20 17 7 -3 2 3 -3 4 1 -6 7 6 -5 0 12 12 3 -1 5 5 -4 5 19 9 3 10 9 7 7 7 5 5 6 -0 0 6 8 9 7 6 7 4 5 4 3
2 2 3 4 4 6 6 6 7 7 10 11 11 11 10 9 10 11 8 7 8 8 10 11 11 14 10 11 12 9 11 11 13 13 11 13 9 8 11 10 14 14 9 11 16 20 11 -4 -3 7 9 8 13 15 15 8 -2 8 16 8 2 -2 4 5 4 15 3 -6 8 10 8 7 3 4 5 6 7 7 9 11 12 6 3 7 6 4 4 4
3 3 5 6 6 7 7 8 10 10 13 10 10 12 11 11 10 8 8 8 9 11 15 12 11 14 10 9 10 9 10 11 16 13 10 13 8 8 11 8 13 8 3 5 2 7 10 2 10 27 21 12 21 25 26 17 1 10 17 13 10 -6 -2 11 6 12 5 -2 13 11 8 8 3 6 6 5 8 10 14 12 7 7 7 6 5 6 5 4
5 5 7 7 8 9 9 11 11 11 12 10 11 12 11 12 9 9 9 8 10 13 13 9 9 13 11 8 7 10 12 11 13 11 10 12 7 9 11 11 9 5 16 17 -4 -8 2 10 16 20 18 14 15 21 28 24 11 10 4 2 14 3 -0 10 7 17 15 3 8 5 5 10 6 4 3 6 7 4 11 12 10 9 8 9 6 4 7 7
7 7 8 9 9 9 10 11 11 11 12 10 11 12 12 11 9 9 7 7 11 7 5 8 9 9 9 9 8 9 11 9 11 13 15 11 9 11 10 13 10 9 27 15 -12 -2 10 15 17 9 10 11 7 7 17 29 17 7 6 1 7 6 1 6 3 6 5 -1 1 3 4 6 8 10 3 6 9 -0 -2 12 31 24 2 2 8 8 9 5
8 9 10 9 9 9 9 10 9 11 11 10 12 11 10 10 9 10 7 9 12 10 12 13 9 8 9 11 10 7 8 8 10 13 14 13 11 11 8 12 15 16 22 4 -11 11 20 16 19 14 1 -2 5 -2 4 32 19 -1 12 6 -3 3 -2 -4 -1 -4 -7 -4 4 10 8 -1 -0 4 -0 1 7 8 8 13 27 33 19 3 1 15 17 3
9 10 9 10 10 9 9 9 9 10 9 10 11 9 9 10 9 7 7 9 8 8 10 7 8 11 8 9 7 5 8 9 12 12 10 14 11 10 11 10 16 19 16 10 -1 4 13 11 15 15 -2 -4 15 11 14 39 13 -12 19 19 -5 -2 -6 -10 3 1 -14 -20 -15 -3 8 10 8 3 -0 3 6 9 16 11 1 12 28 16 8 22 14 -2
10 9 9 10 10 9 10 9 9 9 10 10 8 8 9 10 8 8 11 13 9 6 8 9 14 15 9 10 9 10 14 11 11 10 9 15 10 10 15 11 19 19 10 17 14 9 16 13 15 21 5 -3 7 9 23 41 11 -14 17 31 12 13 13 4 15 31 27 12 1 -3 -5 -2 7 12 7 3 4 5 7 11 6 3 8 10 21 30 9 -2
9 8 9 10 8 9 9 8 9 9 10 9 8 10 10 8 9 9 7 7 8 10 15 16 13 11 9 8 8 11 15 13 11 11 12 15 12 14 15 10 14 1 -9 4 5 12 19 -4 -4 15 15 13 7 -3 10 31 25 4 8 22 19 24 21 6 22 47 47 38 35 37 24 -5 -12 3 8 2 5 10 6 6 12 12 9 3 12 24 20 18
7 6 8 8 8 9 7 7 7 7 9 9 9 9 7 9 11 11 10 11 12 7 9 12 5 3 5 9 14 13 14 13 10 12 12 10 17 19 10 12 14 -2 4 15 -5 3 11 -22 -17 16 23 27 21 7 3 6 18 23 27 29 13 11 11 7 22 18 -5 -4 11 36 46 20 0 2 4 4 3 5 7 5 1 4 11 9 5 11 20 26
6 5 6 7 7 7 8 8 4 6 8 6 8 9 8 12 10 8 8 5 8 4 0 4 1 -5 -2 11 18 11 12 11 6 16 14 8 23 15 -7 10 23 8 13 15 -6 9 15 -16 -1 32 31 32 25 10 2 -4 2 6 12 17 4 -0 4 1 2 -10 -12 5 2 10 24 14 9 8 3 4 4 3 5 8 7 6 8 8 8 12 13 20
8 7 8 9 8 8 8 9 6 7 7 4 8 8 8 14 11 12 16 10 8 7 0 -2 3 11 13 16 13 3 13 15 8 19 14 4 23 18 -5 0 13 8 0 -9 -9 16 18 -6 -2 1 -4 14 12 4 21 19 6 -1 -1 11 12 2 3 7 -1 -7 12 19 -0 7 19 11 10 4 -1 2 3 8 9 5 7 11 14 9 4 13 18 21
13 11 14 14 13 12 9 9 9 8 8 7 6 5 11 20 10 5 22 25 12 11 13 2 2 19 22 19 14 6 17 17 3 9 11 2 6 9 6 -1 3 11 1 -4 9 16 9 2 3 -8 -10 17 18 17 36 10 -12 11 14 12 14 -1 2 20 10 -2 6 -0 -6 9 7 4 15 3 -2 7 6 11 16 13 10 5 12 17 5 3 8 16
16 14 16 16 16 17 12 12 10 8 11 8 5 9 14 18 8 -3 6 6 -8 -1 11 2 2 12 12 15 12 2 10 9 0 12 19 10 -0 1 8 2 9 19 6 12 22 -1 -15 -3 11 7 -0 15 28 30 17 -17 -9 22 5 -5 11 2 1 15 7 -1 8 4 3 13 1 -5 8 4 4 14 12 12 11 14 18 4 -1 11 11 6 2 5
14 12 13 14 16 17 14 13 11 9 12 7 9 14 10 11 12 7 5 -9 -11 7 5 -0 13 12 5 11 0 -14 -9 -10 2 27 24 9 4 8 8 -7 -3 12 8 16 17 -9 -8 14 19 15 6 6 29 36 4 -7 22 16 -3 23 25 -8 -6 16 16 9 14 17 9 12 14 8 7 7 9 11 7 7 5 9 20 16 4 2 3 4 5 3
9 8 12 15 17 16 14 15 13 11 11 9 12 13 10 16 11 4 2 -16 -11 21 20 7 7 -1 3 15 5 0 8 5 15 31 22 4 -5 -3 4 -2 -4 11 12 3 -1 -6 2 11 3 11 25 15 22 30 -1 8 37 -1 -8 40 25 -12 -5 11 30 25 2 2 7 7 7 3 11 14 9 12 11 7 8 9 14 16 14 12 7 4 8 11
8 7 13 16 16 15 13 15 12 11 12 11 15 15 12 17 10 6 15 2 -7 13 22 8 -6 1 19 16 3 5 13 19 19 15 13 6 -2 -5 0 7 14 26 27 4 -5 -0 -3 -9 -14 -5 11 1 13 33 4 8 37 -2 -23 3 5 14 7 -13 23 40 0 -12 2 11 6 -6 4 10 2 9 17 15 15 10 9 13 14 17 19 16 13 14
9 7 13 14 13 13 13 15 12 11 14 12 14 16 10 13 13 3 3 5 -1 3 20 20 0 8 18 1 -1 7 6 8 0 3 15 -1 -5 8 4 11 21 18 22 18 7 6 1 0 1 2 4 -6 8 29 4 1 26 9 -2 -4 -12 11 9 -12 13 19 -2 0 1 6 13 2 2 8 3 4 7 9 7 4 12 17 12 11 13 16 14 11
10 7 12 13 11 11 13 16 14 12 14 12 12 13 12 13 8 1 0 5 4 -6 1 10 -5 -5 6 3 10 13 5 -2 -19 -0 28 0 -6 18 7 11 20 3 11 27 16 4 1 5 2 3 13 2 -1 11 5 6 7 -6 9 15 -5 1 7 6 14 1 -3 13 8 2 4 -0 0 3 1 1 4 7 4 5 17 17 11 11 10 12 14 11
11 9 10 12 11 12 15 16 14 13 12 12 13 10 13 13 5 12 16 9 18 18 5 5 2 -1 8 11 5 -6 -4 5 -1 16 29 2 0 16 1 3 13 5 11 19 11 3 3 11 10 10 14 -6 -15 -1 6 16 9 -13 1 17 5 1 1 2 7 4 4 7 7 9 5 2 6 2 -1 -0 1 7 8 9 14 13 15 17 14 13 11 12
11 9 8 12 12 11 15 14 12 15 13 13 15 8 11 14 9 16 6 -14 4 21 14 21 20 6 9 13 0 -9 -1 6 4 13 8 -10 -1 9 -1 -1 1 5 16 10 5 5 5 17 16 4 -0 -9 -8 2 -3 1 10 6 10 16 16 19 21 20 11 2 4 -2 -6 -0 -1 2 7 4 5 5 5 9 11 7 -0 -5 3 9 13 18 11 6
9 8 9 14 15 11 13 13 11 15 14 12 13 10 11 13 12 17 8 -5 3 3 11 41 34 3 7 15 -4 -11 4 3 -7 6 9 -2 8 15 7 4 1 4 14 12 13 11 4 15 22 11 1 -4 -1 6 1 -0 14 29 24 8 16 31 27 23 17 6 6 5 4 5 0 -2 1 2 2 1 6 12 8 6 4 1 8 13 12 16 16 10
8 10 12 14 14 12 12 12 11 12 12 11 9 7 8 8 12 15 2 -1 4 -10 -6 26 28 9 11 16 2 -9 -2 3 -1 14 18 -4 -2 12 6 6 14 13 6 5 17 19 2 0 16 24 15 -2 -12 -8 -1 -1 7 31 27 -3 -0 17 9 6 16 14 6 2 8 17 12 4 1 1 1 -2 3 9 4 3 6 6 12 18 16 13 14 15
10 11 11 10 9 10 12 13 15 14 11 11 8 7 10 7 7 10 -0 -7 -6 -16 -16 -1 6 12 15 16 17 8 -1 1 2 11 17 0 -4 6 2 3 19 24 16 12 15 13 1 -5 3 15 20 14 4 3 7 2 -8 -0 10 6 2 1 -3 2 12 20 21 13 10 13 15 13 8 4 6 7 6 7 6 6 6 5 5 6 8 12 15 14
12 10 7 8 9 11 12 12 15 16 13 14 12 11 18 17 9 9 12 10 4 1 6 7 -2 3 17 21 20 16 11 11 5 -4 2 14 16 10 6 9 13 10 7 12 20 17 8 4 3 5 13 15 10 11 16 12 -4 -16 -8 8 5 -9 -9 -2 -1 6 15 16 14 9 5 6 6 5 5 7 8 6 4 5 7 11 12 6 -0 2 13 21
11 7 4 10 16 17 16 14 12 10 8 9 11 8 12 17 14 12 11 11 19 23 13 5 1 4 14 9 -7 -3 14 24 20 -0 -13 2 15 10 6 3 -4 -8 -8 -1 17 23 15 11 11 8 9 10 8 11 13 8 -0 -11 -14 -3 3 4 6 2 -5 -7 -6 1 11 12 9 6 3 5 6 4 8 9 8 9 9 10 13 15 12 4 4 15
7 7 9 16 22 18 15 16 14 12 9 6 9 12 11 10 12 15 9 -3 13 37 25 3 -2 -3 9 13 -8 -10 13 24 28 23 1 -9 -2 -1 -5 -7 -7 5 16 18 20 21 17 12 8 7 9 11 7 3 5 10 10 6 1 -3 -1 6 7 2 4 4 -1 3 9 9 11 11 4 4 4 2 3 6 8 11 11 10 9 12 18 16 8 6
12 15 16 17 18 12 8 12 13 16 17 12 13 17 16 16 14 12 11 -1 -4 18 35 32 12 -13 -1 26 14 -3 4 9 16 25 17 9 11 5 -4 1 12 15 18 26 27 25 25 17 6 4 9 15 13 3 2 8 11 19 25 17 9 10 10 11 14 11 8 12 15 13 13 12 9 7 5 5 7 8 11 13 11 11 12 11 12 15 16 12
16 16 15 11 10 10 10 11 12 12 12 10 13 14 12 20 21 6 3 6 -6 -12 12 46 45 10 -6 6 7 4 8 8 11 13 4 4 18 17 4 2 9 8 9 17 19 16 18 19 15 11 8 12 14 10 10 9 7 17 22 14 10 12 12 12 9 6 9 11 12 15 16 15 14 11 10 13 14 12 12 13 11 11 14 16 15 13 14 17
16 13 14 11 10 12 12 10 10 11 12 10 10 11 6 7 13 10 9 12 -0 -20 -17 7 22 20 15 6 -0 7 11 2 2 5 1 2 9 12 10 6 3 4 4 6 10 14 16 16 16 17 19 19 8 -0 6 12 11 15 18 18 21 16 7 6 7 11 14 9 4 7 10 11 11 10 10 10 9 10 11 11 13 14 15 17 18 16 13 12
Height
5907 5907 5907 5907 5907 5907 5907 5907 5907 5907 5907 5907 5907 5907 5907 5907 5907 5907 5907 5907 5907 5906 5906 5906 5905 5905 5905 5904 5904 5903 5903 5902 5902 5902 5901 5901 5901 5901 5901 5901 5901 5902 5902 5902 5903 5903 5903 5903 5903 5902 5902 5903 5904 5904 5905 5905 5905 5905 5905 5906 5905 5905 5906 5907 5907 5907 5907 5907 5907 5907 5907 5907 5907 5907 5906 5905 5905 5904 5904 5903 5903 5904 5904 5904 5903 5903 5903 5903
5907 5908 5908 5908 5908 5908 5908 5908 5908 5908 5908 5908 5908 5908 5908 5907 5907 5907 5907 5907 5906 5906 5906 5905 5905 5905 5904 5904 5903 5902 5902 5901 5901 5900 5899 5900 5900 5900 5900 5900 5900 5901 5901 5901 5902 5902 5903 5903 5902 5902 5901 5901 5903 5904 5904 5905 5906 5905 5905 5906 5906 5906 5907 5907 5907 5907 5907 5907 5907 5907 5907 5907 5908 5907 5907 5906 5906 5905 5905 5904 5904 5904 5904 5904 5904 5904 5903 5903
5908 5908 5908 5908 5909 5909 5908 5908 5908 5908 5908 5908 5908 5908 5908 5907 5907 5907 5906 5906 5906 5906 5905 5905 5904 5904 5903 5903 5902 5901 5901 5900 5900 5898 5898 5898 5898 5898 5898 5899 5899 5900 5900 5900 5901 5901 5902 5902 5902 5902 5901 5900 5901 5903 5904 5905 5905 5904 5905 5906 5905 5906 5907 5907 5907 5907 5907 5907 5907 5907 5907 5907 5908 5907 5907 5906 5906 5906 5905 5905 5905 5905 5905 5904 5904 5904 5904 5904
5909 5909 5909 5909 5909 5909 5909 5909 5909 5909 5908 5908 5908 5908 5908 5907 5907 5906 5906 5906 5905 5905 5904 5904 5903 5903 5902 5901 5901 5900 5899 5899 5897 5896 5896 5896 5896 5897 5897 5897 5898 5898 5899 5899 5900 5900 5901 5901 5901 5901 5901 5901 5901 5902 5903 5904 5904 5903 5904 5905 5904 5905 5906 5906 5907 5907 5907 5907 5907 5906 5906 5907 5907 5907 5906 5906 5906 5906 5906 5905 5905 5906 5905 5905 5905 5905 5904 5904
5909 5909 5909 5909 5909 5909 5909 5909 5909 5909 5908 5908 5908 5908 5907 5907 5907 5906 5906 5905 5905 5904 5903 5903 5902 5902 5901 5900 5899 5898 5897 5897 5894 5893 5895 5895 5895 5895 5895 5896 5896 5897 5897 5898 5899 5899 5900 5901 5901 5901 5901 5901 5901 5901 5901 5902 5903 5902 5903 5903 5903 5903 5904 5905 5906 5907 5906 5906 5907 5906 5905 5907 5907 5907 5906 5906 5906 5906 5906 5905 5906 5906 5906 5905 5905 5905 5905 5904
5910 5910 5910 5909 5909 5909 5909 5909 5909 5909 5908 5908 5908 5907 5907 5907 5906 5906 5905 5904 5904 5903 5902 5902 5901 5900 5899 5898 5897 5896 5895 5895 5892 5892 5893 5893 5893 5893 5893 5894 5895 5895 5896 5896 5897 5898 5899 5900 5900 5900 5901 5901 5901 5901 5901 5901 5901 5901 5902 5902 5903 5903 5903 5906 5907 5907 5906 5906 5907 5906 5905 5905 5906 5906 5905 5905 5906 5906 5906 5905 5906 5906 5906 5906 5906 5906 5905 5905
5910 5910 5910 5910 5909 5909 5909 5909 5909 5908 5908 5908 5907 5907 5906 5906 5905 5905 5904 5903 5903 5902 5901 5900 5899 5898 5897 5896 5895 5894 5893 5892 5890 5889 5890 5891 5891 5891 5892 5892 5893 5894 5894 5895 5896 5897 5898 5898 5899 5900 5900 5900 5900 5901 5902 5901 5899 5899 5901 5902 5902 5903 5905 5908 5907 5906 5906 5907 5907 5907 5905 5904 5904 5904 5904 5905 5905 5905 5905 5905 5905 5906 5906 5906 5906 5906 5906 5906
5910 5910 5909 5909 5909 5909 5909 5908 5908 5908 5908 5907 5907 5906 5906 5905 5905 5904 5903 5902 5902 5901 5900 5899 5898 5897 5895 5894 5893 5892 5890 5888 5888 5888 5888 5889 5889 5889 5890 5890 5891 5892 5892 5893 5894 5895 5896 5896 5897 5898 5899 5899 5899 5901 5902 5903 5901 5899 5900 5902 5902 5903 5906 5907 5904 5904 5906 5907 5906 5906 5905 5904 5903 5903 5903 5904 5904 5904 5904 5904 5905 5906 5906 5907 5907 5907 5906 5906
5909 5909 5909 5909 5909 5908 5908 5908 5908 5907 5907 5907 5906 5906 5905 5904 5904 5903 5902 5901 5900 5899 5898 5897 5896 5895 5893 5892 5891 5890 5888 5886 5887 5887 5886 5886 5887 5887 5888 5888 5889 5890 5890 5891 5892 5893 5894 5894 5896 5897 5898 5899 5899 5899 5900 5901 5901 5899 5899 5901 5901 5903 5905 5904 5903 5904 5905 5906 5905 5905 5905 5905 5904 5903 5903 5903 5902 5903 5903 5904 5905 5906 5906 5906 5907 5907 5907 5907
5909 5909 5908 5908 5908 5908 5907 5907 5907 5907 5906 5906 5905 5905 5904 5903 5903 5902 5901 5900 5899 5898 5897 5896 5894 5893 5891 5890 5889 5888 5887 5885 5884 5885 5884 5884 5884 5885 5885 5886 5887 5888 5889 5890 5890 5891 5892 5893 5895 5896 5897 5897 5898 5899 5899 5899 5899 5898 5899 5899 5900 5903 5904 5903 5904 5905 5906 5905 5904 5904 5904 5903 5902 5902 5902 5902 5901 5901 5902 5903 5904 5905 5906 5906 5907 5907 5907 5907
5908 5908 5908 5907 5907 5907 5907 5906 5906 5906 5906 5905 5904 5904 5903 5902 5901 5901 5900 5898 5897 5896 5895 5894 5892 5891 5889 5888 5887 5886 5885 5884 5883 5883 5883 5882 5882 5883 5883 5884 5885 5886 5887 5888 5889 5889 5890 5892 5893 5894 5895 5896 5897 5897 5898 5898 5898 5897 5898 5899 5899 5902 5902 5902 5903 5905 5906 5905 5904 5904 5903 5902 5901 5901 5901 5901 5900 5900 5900 5902 5903 5905 5906 5906 5907 5907 5907 5908
5907 5907 5907 5906 5906 5906 5906 5906 5905 5905 5905 5904 5903 5903 5902 5901 5900 5899 5898 5897 5896 5894 5893 5892 5891 5889 5888 5886 5885 5884 5883 5883 5882 5881 5881 5881 5881 5881 5881 5882 5883 5884 5885 5886 5887 5888 5888 5890 5891 5892 5894 5896 5896 5897 5897 5897 5897 5896 5896 5898 5900 5901 5900 5900 5901 5904 5904 5903 5903 5903 5902 5901 5900 5899 5898 5899 5899 5898 5899 5901 5903 5904 5905 5906 5906 5907 5907 5908
5906 5906 5906 5906 5905 5905 5905 5905 5904 5904 5903 5903 5902 5902 5901 5900 5899 5898 5896 5895 5894 5893 5892 5890 5889 5888 5886 5884 5883 5882 5881 5881 5880 5880 5879 5879 5879 5879 5879 5880 5881 5882 5883 5884 5885 5886 5887 5888 5889 5890 5893 5895 5895 5896 5896 5896 5897 5896 5895 5897 5900 5900 5899 5899 5900 5902 5902 5901 5902 5902 5900 5898 5897 5896 5897 5898 5898 5897 5898 5900 5902 5904 5905 5906 5906 5907 5908 5908
5906 5905 5905 5905 5904 5904 5904 5904 5903 5903 5902 5902 5901 5900 5899 5898 5897 5896 5895 5893 5892 5891 5890 5888 5887 5886 5884 5883 5882 5880 5880 5879 5878 5878 5878 5877 5877 5877 5878 5878 5879 5880 5881 5882 5883 5884 5885 5887 5887 5889 5892 5893 5893 5895 5895 5895 5896 5895 5894 5896 5899 5899 5899 5900 5900 5901 5900 5899 5899 5899 5898 5896 5895 5895 5895 5896 5896 5897 5898 5900 5902 5903 5905 5906 5906 5907 5908 5909
5905 5904 5904 5904 5904 5903 5903 5902 5902 5902 5901 5900 5899 5899 5898 5897 5895 5894 5893 5892 5890 5889 5888 5887 5885 5884 5882 5881 5880 5879 5878 5877 5876 5876 5876 5875 5875 5875 5876 5876 5877 5878 5879 5880 5881 5882 5884 5885 5886 5888 5890 5890 5892 5893 5893 5894 5894 5894 5893 5895 5897 5899 5899 5899 5899 5899 5899 5898 5898 5897 5896 5895 5894 5893 5894 5895 5896 5896 5898 5899 5902 5903 5904 5905 5906 5907 5908 5909
5904 5904 5903 5903 5903 5902 5902 5901 5901 5900 5899 5899 5898 5897 5896 5895 5894 5893 5891 5890 5889 5887 5886 5885 5884 5882 5881 5879 5878 5877 5876 5875 5874 5874 5874 5873 5873 5874 5874 5875 5875 5876 5877 5878 5879 5880 5882 5883 5885 5886 5888 5889 5891 5892 5892 5892 5892 5892 5893 5894 5896 5898 5898 5898 5898 5898 5898 5898 5897 5896 5895 5894 5893 5893 5894 5894 5895 5896 5897 5899 5901 5903 5904 5905 5906 5907 5908 5909
5903 5902 5902 5902 5901 5901 5900 5900 5899 5899 5898 5897 5896 5895 5894 5893 5892 5891 5889 5888 5887 5885 5884 5883 5882 5881 5879 5878 5877 5876 5875 5874 5873 5872 5872 5872 5872 5872 5872 5873 5874 5875 5875 5876 5878 5879 5880 5882 5883 5885 5886 5887 5889 5890 5892 5892 5891 5891 5892 5893 5894 5896 5897 5897 5897 5897 5897 5897 5896 5896 5895 5893 5892 5891 5892 5892 5893 5895 5897 5899 5900 5902 5904 5904 5905 5907 5908 5909
5902 5901 5901 5901 5900 5900 5899 5898 5898 5897 5896 5895 5894 5893 5892 5891 5890 5889 5887 5886 5885 5884 5882 5881 5880 5879 5877 5876 5875 5874 5873 5872 5871 5871 5870 5870 5870 5870 5871 5871 5872 5873 5873 5875 5876 5877 5879 5880 5882 5883 5885 5886 5887 5889 5890 5890 5890 5891 5892 5893 5893 5895 5897 5896 5897 5897 5896 5896 5896 5896 5895 5893 5891 5890 5891 5892 5894 5896 5898 5899 5900 5902 5903 5904 5905 5906 5908 5909
5901 5900 5900 5899 5899 5898 5898 5897 5896 5895 5894 5893 5892 5891 5890 5889 5888 5886 5885 5884 5883 5882 5880 5879 5878 5877 5876 5875 5874 5873 5872 5871 5870 5870 5869 5869 5869 5869 5869 5870 5870 5871 5872 5873 5874 5875 5877 5878 5880 5882 5883 5885 5885 5886 5887 5888 5889 5890 5891 5892 5892 5894 5896 5895 5896 5896 5895 5896 5896 5895 5895 5894 5892 5892 5893 5894 5896 5898 5898 5899 5900 5902 5903 5903 5905 5906 5907 5908
5899 5899 5898 5898 5897 5897 5896 5895 5894 5893 5892 5891 5890 5889 5888 5887 5886 5884 5883 5882 5881 5880 5879 5878 5876 5875 5874 5874 5872 5871 5871 5870 5869 5869 5868 5868 5868 5868 5868 5869 5869 5870 5871 5871 5872 5873 5875 5877 5879 5880 5881 5882 5883 5884 5885 5887 5889 5890 5891 5891 5891 5893 5895 5894 5895 5895 5894 5895 5895 5895 5895 5895 5894 5894 5895 5896 5898 5898 5899 5899 5900 5902 5903 5903 5904 5905 5907 5908
5898 5898 5897 5896 5896 5895 5894 5893 5892 5891 5890 5889 5888 5887 5886 5885 5883 5882 5881 5880 5879 5878 5877 5876 5875 5874 5873 5872 5871 5870 5870 5869 5868 5868 5868 5867 5867 5868 5868 5868 5868 5869 5869 5870 5871 5872 5874 5876 5877 5879 5880 5880 5881 5883 5885 5886 5887 5888 5890 5890 5889 5891 5894 5894 5895 5895 5894 5894 5895 5895 5895 5895 5895 5896 5896 5897 5898 5898 5899 5899 5900 5902 5903 5903 5904 5905 5906 5907
5896 5896 5895 5894 5894 5893 5892 5891 5890 5889 5888 5887 5885 5884 5883 5882 5881 5880 5879 5878 5877 5876 5875 5874 5873 5872 5871 5870 5870 5869 5869 5869 5868 5867 5867 5867 5867 5867 5867 5867 5868 5868 5869 5869 5870 5871 5873 5875 5875 5877 5877 5878 5880 5881 5883 5883 5883 5885 5888 5889 5889 5889 5892 5895 5895 5894 5893 5894 5894 5895 5895 5896 5896 5896 5897 5898 5898 5899 5899 5899 5900 5901 5902 5903 5904 5905 5906 5907
5894 5894 5893 5892 5891 5890 5889 5888 5887 5886 5885 5884 5883 5882 5881 5880 5879 5878 5878 5877 5876 5875 5874 5873 5872 5871 5870 5869 5868 5868 5868 5868 5867 5867 5867 5867 5867 5867 5867 5867 5867 5867 5868 5869 5869 5870 5871 5873 5874 5874 5873 5875 5877 5878 5880 5881 5881 5885 5888 5888 5888 5888 5890 5893 5893 5891 5892 5894 5894 5894 5895 5895 5896 5896 5897 5898 5898 5899 5899 5900 5900 5901 5901 5902 5903 5904 5905 5907
5892 5891 5890 5889 5888 5888 5887 5886 5884 5883 5882 5881 5880 5879 5878 5878 5877 5876 5876 5875 5874 5873 5872 5871 5870 5870 5869 5868 5867 5867 5867 5867 5866 5866 5866 5866 5866 5866 5867 5867 5867 5867 5867 5869 5869 5870 5870 5870 5871 5872 5872 5874 5876 5877 5879 5880 5881 5885 5887 5887 5887 5888 5889 5890 5891 5889 5890 5893 5893 5893 5894 5894 5895 5896 5896 5897 5898 5899 5899 5900 5901 5901 5901 5901 5902 5903 5904 5905
5889 5889 5888 5887 5886 5885 5884 5883 5882 5881 5880 5879 5878 5877 5876 5875 5875 5874 5873 5873 5873 5872 5870 5869 5868 5868 5867 5867 5867 5866 5866 5866 5865 5866 5865 5865 5866 5866 5866 5866 5867 5867 5867 5869 5869 5870 5870 5870 5871 5872 5873 5875 5876 5876 5877 5878 5881 5885 5886 5887 5888 5889 5889 5889 5889 5888 5889 5892 5892 5892 5893 5894 5894 5894 5895 5896 5897 5898 5899 5899 5899 5900 5901 5901 5902 5902 5903 5904
5886 5886 5885 5884 5883 5882 5881 5880 5879 5878 5877 5876 5875 5875 5874 5873 5873 5872 5871 5871 5872 5871 5869 5868 5867 5867 5867 5866 5866 5866 5866 5865 5865 5865 5865 5865 5865 5865 5865 5865 5866 5867 5867 5868 5870 5869 5870 5871 5871 5872 5873 5873 5873 5874 5875 5877 5881 5883 5883 5885 5887 5889 5890 5889 5887 5886 5887 5889 5890 5891 5892 5892 5892 5893 5894 5895 5896 5897 5897 5897 5898 5899 5900 5900 5901 5903 5904 5905
5882 5882 5881 5881 5879 5879 5878 5877 5876 5876 5875 5874 5873 5873 5872 5872 5871 5870 5869 5869 5870 5869 5869 5868 5866 5866 5866 5866 5865 5864 5865 5865 5864 5864 5864 5865 5865 5865 5865 5865 5865 5866 5867 5869 5869 5869 5870 5870 5871 5871 5872 5872 5872 5872 5873 5876 5879 5879 5879 5882 5884 5886 5888 5888 5886 5885 5886 5887 5888 5890 5890 5890 5891 5892 5893 5894 5894 5895 5896 5896 5896 5897 5898 5898 5900 5902 5903 5905
5879 5878 5878 5878 5877 5876 5875 5874 5874 5873 5872 5872 5871 5871 5870 5870 5869 5869 5868 5867 5867 5867 5867 5866 5865 5865 5865 5864 5864 5863 5864 5864 5864 5864 5864 5864 5864 5865 5865 5865 5865 5866 5867 5868 5868 5869 5869 5869 5871 5871 5871 5871 5871 5871 5872 5875 5877 5875 5875 5879 5881 5881 5882 5883 5884 5885 5886 5885 5886 5888 5887 5888 5890 5890 5891 5892 5892 5893 5895 5895 5895 5895 5897 5897 5898 5900 5901 5902
5875 5875 5874 5874 5874 5873 5872 5871 5871 5871 5870 5869 5869 5869 5868 5868 5868 5867 5867 5866 5865 5865 5865 5864 5865 5864 5863 5863 5863 5863 5863 5863 5863 5863 5863 5864 5864 5864 5864 5865 5866 5865 5865 5867 5868 5869 5870 5869 5870 5871 5871 5871 5871 5871 5872 5874 5874 5872 5874 5877 5879 5880 5881 5882 5884 5885 5885 5884 5886 5887 5885 5886 5888 5889 5890 5891 5891 5892 5894 5895 5895 5896 5896 5897 5897 5898 5899 5900
5871 5871 5871 5871 5870 5870 5869 5869 5868 5868 5868 5867 5867 5867 5867 5866 5866 5866 5866 5864 5864 5864 5863 5863 5863 5863 5862 5862 5862 5862 5862 5863 5863 5863 5863 5863 5864 5864 5865 5865 5865 5865 5865 5867 5868 5869 5869 5870 5870 5870 5870 5871 5871 5871 5872 5872 5873 5873 5876 5878 5879 5881 5883 5884 5884 5884 5884 5885 5887 5888 5885 5884 5886 5888 5890 5890 5891 5891 5892 5893 5893 5894 5895 5896 5897 5897 5898 5900
5868 5867 5868 5867 5867 5867 5866 5866 5866 5865 5865 5865 5865 5865 5865 5865 5864 5865 5865 5863 5863 5863 5862 5861 5862 5862 5862 5862 5862 5861 5862 5862 5862 5862 5863 5863 5863 5864 5865 5865 5865 5865 5866 5867 5868 5868 5868 5868 5870 5870 5870 5870 5871 5871 5872 5872 5873 5875 5877 5878 5880 5881 5882 5883 5884 5884 5884 5886 5887 5886 5885 5883 5884 5887 5889 5890 5890 5890 5891 5892 5892 5893 5893 5894 5895 5896 5897 5899
5864 5864 5864 5864 5864 5863 5863 5863 5863 5863 5863 5862 5863 5863 5863 5863 5863 5863 5863 5862 5862 5862 5861 5861 5861 5861 5861 5860 5860 5860 5860 5861 5862 5862 5862 5863 5863 5864 5864 5865 5865 5865 5866 5866 5866 5867 5868 5867 5868 5869 5869 5869 5869 5870 5871 5872 5873 5875 5876 5877 5879 5879 5880 5881 5882 5882 5883 5884 5885 5884 5883 5882 5883 5885 5888 5888 5887 5887 5888 5890 5891 5892 5893 5893 5893 5894 5895 5897
5860 5860 5860 5860 5860 5860 5860 5860 5859 5860 5860 5859 5860 5860 5861 5862 5862 5862 5862 5861 5862 5862 5862 5862 5860 5859 5860 5860 5859 5859 5860 5860 5861 5862 5861 5861 5862 5862 5862 5863 5864 5865 5866 5865 5866 5868 5869 5868 5867 5867 5867 5867 5868 5869 5869 5870 5871 5873 5875 5877 5878 5879 5880 5881 5881 5881 5882 5882 5882 5882 5881 5881 5882 5884 5886 5886 5886 5886 5887 5888 5889 5891 5892 5893 5892 5892 5893 5894
5856 5855 5855 5856 5856 5856 5856 5856 5856 5857 5857 5857 5858 5858 5859 5860 5860 5861 5860 5859 5861 5862 5862 5861 5859 5858 5860 5859 5859 5860 5860 5860 5861 5861 5860 5860 5860 5860 5861 5862 5864 5865 5865 5865 5866 5868 5869 5868 5867 5866 5867 5868 5868 5868 5868 5869 5871 5872 5874 5876 5877 5879 5880 5880 5881 5881 5881 5882 5880 5879 5880 5881 5881 5883 5884 5885 5885 5885 5886 5886 5887 5888 5890 5891 5891 5891 5891 5892
5851 5851 5851 5851 5851 5851 5852 5852 5852 5853 5853 5853 5854 5856 5858 5858 5858 5859 5859 5858 5861 5862 5860 5859 5859 5859 5859 5859 5859 5860 5861 5860 5860 5861 5861 5860 5860 5861 5863 5863 5863 5864 5865 5864 5864 5866 5869 5868 5866 5866 5867 5867 5867 5867 5868 5869 5870 5871 5873 5875 5876 5878 5879 5879 5879 5878 5879 5880 5879 5878 5880 5880 5881 5882 5883 5883 5883 5883 5884 5884 5885 5886 5887 5888 5888 5889 5889 5889
5846 5846 5846 5846 5847 5847 5847 5848 5848 5849 5850 5850 5851 5854 5856 5856 5856 5856 5856 5857 5859 5861 5859 5858 5858 5859 5858 5858 5859 5860 5861 5861 5861 5861 5861 5860 5859 5861 5862 5862 5862 5863 5865 5865 5865 5864 5866 5866 5865 5866 5867 5866 5865 5866 5868 5868 5868 5869 5871 5871 5873 5875 5875 5876 5876 5876 5876 5878 5877 5876 5878 5879 5879 5880 5880 5880 5879 5879 5880 5881 5882 5883 5884 5885 5885 5886 5887 5887
5841 5841 5841 5842 5842 5842 5842 5843 5843 5845 5846 5846 5849 5852 5853 5853 5854 5853 5852 5853 5855 5857 5858 5857 5858 5858 5858 5859 5859 5859 5861 5862 5861 5860 5861 5860 5860 5860 5860 5860 5862 5863 5865 5866 5865 5864 5864 5864 5864 5865 5866 5865 5865 5866 5867 5868 5868 5869 5869 5869 5871 5873 5872 5872 5873 5873 5875 5876 5874 5873 5874 5875 5876 5876 5875 5875 5875 5876 5877 5878 5879 5879 5881 5881 5881 5882 5883 5884
5837 5837 5837 5838 5838 5838 5838 5839 5839 5840 5842 5844 5846 5849 5850 5851 5852 5851 5849 5849 5851 5854 5855 5856 5856 5857 5858 5859 5860 5859 5860 5861 5860 5859 5860 5860 5859 5859 5859 5859 5861 5863 5864 5864 5864 5864 5864 5863 5863 5864 5864 5865 5865 5865 5867 5867 5868 5869 5869 5869 5871 5871 5871 5872 5872 5872 5874 5874 5872 5871 5871 5872 5873 5874 5873 5873 5875 5876 5877 5877 5877 5877 5878 5878 5879 5879 5880 5882
5832 5832 5833 5835 5834 5833 5834 5834 5835 5836 5838 5841 5844 5845 5846 5847 5848 5848 5847 5848 5849 5851 5852 5853 5854 5855 5856 5858 5859 5860 5860 5860 5860 5859 5859 5858 5859 5860 5858 5858 5859 5861 5862 5862 5863 5864 5864 5862 5862 5863 5864 5865 5865 5865 5866 5865 5866 5868 5869 5869 5870 5870 5870 5870 5870 5871 5873 5872 5870 5869 5869 5870 5871 5872 5872 5872 5874 5875 5876 5876 5876 5877 5877 5877 5878 5879 5880 5881
5828 5827 5829 5831 5829 5828 5830 5830 5831 5833 5835 5838 5840 5841 5842 5843 5844 5845 5844 5845 5847 5848 5849 5851 5853 5854 5854 5856 5857 5859 5859 5859 5859 5859 5858 5857 5858 5858 5857 5856 5857 5859 5859 5860 5862 5863 5862 5862 5861 5861 5863 5864 5865 5866 5865 5864 5865 5867 5868 5869 5869 5867 5866 5867 5869 5870 5870 5870 5868 5866 5865 5866 5867 5869 5870 5870 5870 5872 5873 5873 5874 5875 5877 5877 5879 5880 5880 5881
5823 5822 5825 5828 5825 5825 5827 5827 5828 5829 5831 5834 5836 5837 5838 5839 5841 5842 5842 5842 5844 5846 5847 5848 5849 5849 5851 5852 5854 5856 5858 5858 5859 5859 5858 5856 5855 5854 5854 5853 5854 5856 5858 5858 5858 5858 5859 5859 5859 5859 5860 5861 5862 5863 5863 5863 5864 5864 5864 5865 5864 5863 5864 5866 5868 5868 5868 5866 5864 5863 5862 5863 5864 5866 5868 5868 5868 5870 5871 5871 5871 5873 5874 5876 5877 5878 5878 5879
5818 5818 5821 5824 5822 5821 5823 5823 5824 5825 5828 5830 5832 5834 5835 5836 5838 5840 5840 5840 5841 5842 5844 5845 5846 5847 5849 5850 5850 5853 5855 5856 5858 5858 5856 5853 5852 5852 5851 5851 5852 5854 5855 5855 5854 5855 5857 5857 5857 5858 5858 5858 5859 5859 5860 5862 5862 5861 5862 5863 5862 5862 5863 5864 5864 5864 5865 5863 5862 5861 5860 5861 5862 5864 5865 5866 5867 5868 5869 5869 5870 5871 5873 5874 5875 5875 5876 5877
5814 5814 5817 5820 5819 5817 5818 5819 5820 5822 5825 5827 5828 5829 5831 5832 5835 5837 5837 5836 5838 5840 5841 5841 5843 5844 5847 5848 5848 5850 5851 5853 5856 5855 5853 5851 5850 5851 5850 5849 5850 5851 5852 5852 5852 5854 5856 5856 5856 5857 5856 5856 5858 5858 5858 5859 5860 5860 5862 5862 5862 5862 5861 5861 5861 5861 5862 5862 5861 5860 5859 5859 5860 5861 5862 5863 5865 5866 5868 5868 5868 5869 5871 5873 5874 5874 5874 5875
5810 5810 5812 5815 5815 5813 5814 5815 5816 5818 5821 5822 5824 5826 5827 5829 5831 5833 5834 5835 5837 5839 5838 5837 5839 5842 5843 5845 5846 5848 5848 5850 5852 5851 5851 5849 5847 5848 5848 5848 5848 5847 5848 5850 5849 5852 5853 5852 5853 5855 5855 5856 5857 5857 5856 5856 5857 5859 5860 5861 5862 5861 5860 5859 5859 5859 5860 5860 5859 5858 5857 5857 5858 5859 5860 5861 5862 5864 5865 5866 5866 5867 5868 5870 5873 5873 5872 5872
5806 5806 5807 5810 5810 5809 5810 5811 5812 5814 5816 5817 5818 5820 5822 5825 5828 5829 5830 5830 5833 5834 5833 5834 5837 5839 5839 5840 5843 5845 5846 5846 5848 5849 5849 5847 5844 5843 5844 5844 5845 5845 5846 5846 5847 5849 5849 5849 5852 5853 5853 5853 5854 5855 5854 5853 5856 5857 5857 5859 5859 5859 5858 5857 5856 5855 5856 5857 5857 5856 5855 5856 5857 5858 5858 5859 5860 5861 5863 5864 5864 5864 5865 5867 5869 5871 5871 5870
5802 5801 5802 5803 5804 5804 5806 5808 5808 5810 5812 5813 5814 5816 5818 5820 5822 5824 5824 5825 5828 5829 5828 5831 5834 5835 5835 5836 5839 5842 5843 5843 5845 5847 5847 5846 5842 5841 5840 5839 5840 5843 5844 5843 5844 5846 5846 5847 5850 5851 5851 5852 5852 5853 5853 5852 5854 5856 5856 5857 5856 5855 5855 5853 5852 5852 5853 5853 5854 5854 5854 5855 5857 5857 5856 5856 5857 5859 5861 5861 5861 5861 5862 5864 5866 5867 5868 5868
5797 5796 5795 5797 5800 5802 5802 5804 5806 5807 5809 5810 5811 5813 5816 5817 5817 5819 5820 5822 5824 5826 5825 5826 5829 5831 5833 5834 5836 5838 5839 5841 5842 5843 5844 5844 5841 5839 5838 5836 5837 5840 5841 5841 5841 5843 5843 5844 5846 5848 5849 5850 5851 5853 5851 5850 5852 5852 5853 5854 5853 5852 5853 5851 5850 5850 5850 5850 5850 5851 5853 5854 5855 5855 5854 5854 5855 5856 5858 5859 5859 5858 5859 5861 5863 5864 5865 5865
5792 5790 5790 5793 5797 5799 5799 5799 5801 5803 5804 5805 5807 5809 5811 5813 5814 5816 5818 5819 5820 5822 5822 5822 5824 5827 5831 5833 5835 5837 5836 5837 5839 5839 5841 5842 5839 5838 5837 5835 5835 5837 5838 5838 5839 5839 5840 5841 5843 5845 5846 5846 5847 5849 5849 5849 5850 5848 5849 5850 5850 5851 5851 5849 5848 5847 5847 5847 5848 5849 5851 5851 5852 5852 5852 5852 5852 5853 5855 5856 5856 5856 5856 5857 5859 5861 5862 5863
5786 5786 5789 5793 5795 5796 5797 5796 5797 5798 5799 5800 5802 5804 5807 5809 5810 5812 5815 5816 5815 5817 5818 5819 5821 5823 5826 5829 5833 5835 5834 5834 5836 5837 5838 5839 5838 5837 5836 5834 5832 5833 5834 5835 5836 5837 5837 5838 5840 5841 5842 5843 5844 5845 5845 5846 5847 5846 5846 5847 5847 5848 5849 5847 5846 5845 5843 5844 5846 5846 5847 5848 5848 5849 5848 5848 5849 5850 5851 5853 5853 5853 5852 5853 5855 5857 5859 5860
5784 5785 5788 5790 5790 5791 5793 5793 5793 5795 5796 5797 5799 5801 5803 5805 5807 5808 5810 5812 5813 5814 5814 5816 5818 5819 5822 5825 5828 5830 5830 5831 5833 5834 5835 5836 5836 5835 5834 5833 5830 5830 5831 5832 5833 5835 5835 5835 5837 5838 5839 5841 5842 5842 5842 5843 5844 5843 5843 5843 5843 5844 5845 5845 5844 5841 5840 5842 5844 5843 5844 5845 5845 5845 5845 5846 5846 5847 5848 5849 5850 5850 5849 5849 5851 5852 5854 5856
5781 5782 5783 5784 5785 5786 5788 5790 5790 5792 5793 5794 5797 5799 5800 5802 5803 5803 5804 5807 5810 5812 5811 5812 5814 5816 5818 5820 5823 5825 5827 5828 5829 5831 5832 5833 5832 5830 5831 5832 5830 5829 5829 5829 5829 5832 5833 5832 5834 5835 5836 5839 5840 5840 5841 5841 5840 5840 5840 5840 5841 5841 5842 5841 5840 5838 5838 5840 5841 5841 5842 5842 5842 5842 5843 5843 5844 5844 5845 5846 5846 5846 5846 5845 5846 5848 5850 5851
5777 5777 5778 5780 5782 5783 5784 5785 5786 5788 5790 5792 5793 5795 5796 5798 5799 5799 5801 5804 5806 5807 5808 5808 5809 5810 5811 5815 5818 5821 5823 5825 5827 5828 5828 5828 5827 5826 5827 5829 5829 5828 5828 5827 5827 5828 5829 5829 5830 5831 5833 5835 5835 5836 5837 5838 5838 5838 5837 5838 5838 5839 5838 5837 5836 5836 5837 5837 5838 5839 5839 5839 5839 5840 5840 5841 5841 5842 5842 5842 5843 5842 5842 5842 5842 5844 5845 5846